QPF
0.00 0.00 0.00 0.00 0.00 0.00 0.00 0.00 0.00 0.00 0.00 0.00 0.00 0.00 0.00 0.00 0.00 0.00 0.00 0.00 0.00 0.00 0.00 0.00 0.01 0.01 0.01 0.01 0.01 0.01 0.01 0.00 0.00 0.00 0.00 0.00 0.00 0.00 0.00 0.00 0.00 0.00 0.00 0.00 0.00 0.00 0.00 0.00 0.00
0.00 0.00 0.00 0.00 0.00 0.00 0.00 0.00 0.00 0.00 0.00 0.00 0.00 0.00 0.00 0.00 0.00 0.00 0.00 0.00 0.00 0.00 0.00 0.00 0.01 0.01 0.01 0.01 0.01 0.01 0.00 0.00 0.00 0.00 0.00 0.00 0.00 0.00 0.00 0.00 0.00 0.00 0.00 0.00 0.00 0.00 0.00 0.00 0.00
0.00 0.00 0.00 0.00 0.00 0.00 0.00 0.00 0.00 0.00 0.00 0.00 0.00 0.00 0.00 0.00 0.00 0.00 0.00 0.00 0.00 0.00 0.00 0.00 0.01 0.01 0.01 0.01 0.01 0.01 0.00 0.00 0.00 0.00 0.00 0.00 0.00 0.00 0.00 0.00 0.00 0.00 0.00 0.00 0.00 0.00 0.00 0.00 0.00
0.00 0.00 0.00 0.00 0.00 0.00 0.00 0.00 0.00 0.00 0.00 0.00 0.00 0.00 0.00 0.00 0.00 0.00 0.00 0.00 0.00 0.00 0.00 0.00 0.00 0.01 0.01 0.01 0.01 0.01 0.01 0.00 0.00 0.00 0.00 0.00 0.00 0.00 0.00 0.00 0.00 0.00 0.00 0.00 0.00 0.00 0.00 0.00 0.00
0.00 0.00 0.00 0.00 0.00 0.00 0.00 0.00 0.00 0.00 0.00 0.00 0.00 0.00 0.00 0.00 0.00 0.00 0.00 0.00 0.00 0.00 0.00 0.00 0.00 0.01 0.01 0.01 0.01 0.01 0.01 0.01 0.00 0.00 0.00 0.00 0.00 0.00 0.00 0.00 0.00 0.00 0.00 0.00 0.00 0.00 0.00 0.00 0.00
0.00 0.00 0.00 0.00 0.00 0.00 0.00 0.00 0.00 0.00 0.00 0.00 0.00 0.00 0.00 0.00 0.00 0.00 0.00 0.00 0.00 0.00 0.00 0.00 0.00 0.01 0.01 0.01 0.01 0.01 0.01 0.01 0.01 0.00 0.00 0.00 0.00 0.00 0.00 0.00 0.00 0.00 0.00 0.00 0.00 0.00 0.00 0.00 0.00
0.00 0.00 0.00 0.00 0.00 0.00 0.00 0.00 0.00 0.00 0.00 0.00 0.00 0.00 0.00 0.00 0.00 0.00 0.00 0.00 0.00 0.00 0.00 0.00 0.00 0.00 0.01 0.01 0.01 0.00 0.00 0.01 0.01 0.00 0.00 0.00 0.00 0.00 0.00 0.00 0.00 0.00 0.00 0.00 0.00 0.00 0.00 0.00 0.00
0.00 0.00 0.00 0.00 0.00 0.00 0.00 0.00 0.00 0.00 0.00 0.00 0.00 0.00 0.00 0.00 0.00 0.00 0.00 0.00 0.00 0.00 0.00 0.00 0.00 0.00 0.00 0.00 0.00 0.00 0.00 0.01 0.01 0.00 0.00 0.00 0.00 0.00 0.00 0.00 0.00 0.00 0.00 0.00 0.00 0.00 0.00 0.00 0.00
0.00 0.00 0.00 0.00 0.00 0.00 0.00 0.00 0.00 0.00 0.00 0.00 0.00 0.00 0.00 0.00 0.00 0.00 0.00 0.00 0.00 0.00 0.00 0.00 0.00 0.00 0.00 0.00 0.00 0.00 0.00 0.00 0.00 0.00 0.00 0.00 0.00 0.00 0.00 0.00 0.00 0.00 0.00 0.00 0.00 0.00 0.00 0.00 0.00
0.00 0.00 0.00 0.00 0.00 0.00 0.00 0.00 0.00 0.00 0.00 0.00 0.00 0.00 0.00 0.00 0.00 0.00 0.00 0.00 0.00 0.00 0.00 0.00 0.00 0.00 0.00 0.00 0.00 0.00 0.00 0.00 0.00 0.00 0.00 0.00 0.00 0.00 0.00 0.00 0.00 0.00 0.00 0.00 0.00 0.00 0.00 0.00 0.00
0.00 0.00 0.00 0.00 0.00 0.00 0.00 0.00 0.00 0.00 0.00 0.00 0.00 0.00 0.00 0.00 0.00 0.00 0.00 0.00 0.00 0.00 0.00 0.00 0.00 0.00 0.00 0.00 0.00 0.00 0.00 0.00 0.00 0.00 0.00 0.00 0.00 0.00 0.00 0.00 0.00 0.00 0.00 0.00 0.00 0.00 0.00 0.00 0.00
0.00 0.00 0.00 0.00 0.00 0.00 0.00 0.00 0.00 0.00 0.00 0.00 0.00 0.00 0.00 0.00 0.00 0.00 0.00 0.00 0.00 0.00 0.00 0.00 0.00 0.00 0.00 0.00 0.00 0.00 0.00 0.00 0.00 0.00 0.00 0.00 0.00 0.00 0.00 0.00 0.00 0.00 0.00 0.00 0.00 0.00 0.00 0.00 0.00
0.00 0.00 0.00 0.00 0.00 0.00 0.00 0.00 0.00 0.00 0.00 0.00 0.00 0.00 0.00 0.00 0.00 0.00 0.00 0.00 0.00 0.00 0.00 0.00 0.00 0.00 0.00 0.00 0.00 0.00 0.00 0.00 0.00 0.00 0.00 0.00 0.00 0.00 0.00 0.00 0.00 0.00 0.00 0.00 0.00 0.00 0.00 0.00 0.00
0.00 0.00 0.00 0.00 0.00 0.00 0.00 0.00 0.00 0.00 0.00 0.00 0.00 0.00 0.00 0.00 0.00 0.00 0.00 0.00 0.00 0.00 0.00 0.00 0.00 0.00 0.00 0.00 0.00 0.00 0.00 0.00 0.00 0.00 0.00 0.00 0.00 0.00 0.00 0.00 0.00 0.00 0.00 0.00 0.00 0.00 0.00 0.00 0.00
0.00 0.00 0.00 0.00 0.00 0.00 0.00 0.00 0.00 0.00 0.00 0.00 0.00 0.00 0.00 0.00 0.00 0.00 0.00 0.00 0.00 0.00 0.00 0.00 0.00 0.00 0.00 0.00 0.00 0.00 0.00 0.00 0.00 0.00 0.00 0.00 0.00 0.00 0.00 0.00 0.00 0.00 0.00 0.00 0.00 0.00 0.00 0.00 0.00
0.00 0.00 0.00 0.00 0.00 0.00 0.00 0.00 0.00 0.00 0.00 0.00 0.00 0.00 0.00 0.00 0.00 0.00 0.00 0.00 0.00 0.00 0.00 0.00 0.00 0.00 0.00 0.00 0.00 0.00 0.00 0.00 0.00 0.00 0.00 0.00 0.00 0.00 0.00 0.00 0.00 0.00 0.00 0.00 0.00 0.00 0.00 0.00 0.00
0.00 0.00 0.00 0.00 0.00 0.00 0.00 0.00 0.00 0.00 0.00 0.00 0.00 0.00 0.00 0.00 0.00 0.00 0.00 0.00 0.00 0.00 0.00 0.00 0.00 0.00 0.00 0.00 0.00 0.00 0.00 0.00 0.00 0.00 0.00 0.00 0.00 0.00 0.00 0.00 0.00 0.00 0.00 0.00 0.00 0.00 0.00 0.00 0.00
0.00 0.00 0.00 0.00 0.00 0.00 0.00 0.00 0.00 0.00 0.00 0.00 0.00 0.00 0.00 0.00 0.00 0.00 0.00 0.00 0.00 0.00 0.00 0.00 0.00 0.00 0.00 0.00 0.00 0.00 0.00 0.00 0.00 0.00 0.00 0.00 0.00 0.00 0.00 0.00 0.00 0.00 0.00 0.00 0.00 0.00 0.00 0.00 0.00
0.00 0.00 0.00 0.00 0.00 0.00 0.00 0.00 0.00 0.00 0.00 0.00 0.00 0.00 0.00 0.00 0.00 0.00 0.00 0.00 0.00 0.00 0.00 0.00 0.00 0.00 0.00 0.00 0.00 0.00 0.00 0.00 0.00 0.00 0.00 0.00 0.00 0.00 0.00 0.00 0.00 0.00 0.00 0.00 0.00 0.00 0.00 0.00 0.00
0.00 0.00 0.00 0.00 0.00 0.00 0.00 0.00 0.00 0.00 0.00 0.00 0.00 0.00 0.00 0.00 0.00 0.00 0.00 0.00 0.00 0.00 0.00 0.00 0.00 0.00 0.00 0.00 0.00 0.00 0.00 0.00 0.00 0.00 0.00 0.00 0.00 0.00 0.00 0.00 0.00 0.00 0.00 0.00 0.00 0.00 0.00 0.00 0.00
0.00 0.00 0.00 0.00 0.00 0.00 0.00 0.00 0.00 0.00 0.00 0.00 0.00 0.00 0.00 0.00 0.00 0.00 0.00 0.00 0.00 0.00 0.00 0.00 0.00 0.00 0.00 0.00 0.00 0.00 0.00 0.00 0.00 0.00 0.00 0.00 0.00 0.00 0.00 0.00 0.00 0.00 0.00 0.00 0.00 0.00 0.00 0.00 0.00
0.00 0.00 0.00 0.00 0.00 0.00 0.00 0.00 0.00 0.00 0.00 0.00 0.00 0.00 0.00 0.00 0.00 0.00 0.00 0.00 0.00 0.00 0.00 0.00 0.00 0.00 0.00 0.00 0.00 0.00 0.00 0.00 0.00 0.00 0.00 0.00 0.00 0.00 0.00 0.00 0.00 0.00 0.00 0.00 0.00 0.00 0.00 0.00 0.00
0.00 0.00 0.00 0.00 0.00 0.00 0.00 0.00 0.00 0.00 0.00 0.00 0.00 0.00 0.00 0.00 0.00 0.00 0.00 0.00 0.00 0.00 0.00 0.00 0.00 0.00 0.00 0.00 0.00 0.00 0.00 0.00 0.00 0.00 0.00 0.00 0.00 0.00 0.00 0.00 0.00 0.00 0.00 0.00 0.00 0.00 0.00 0.00 0.00
0.00 0.01 0.01 0.00 0.01 0.01 0.00 0.00 0.00 0.00 0.00 0.00 0.00 0.00 0.00 0.00 0.00 0.00 0.00 0.00 0.00 0.00 0.00 0.00 0.00 0.00 0.00 0.00 0.00 0.00 0.00 0.00 0.00 0.00 0.00 0.00 0.00 0.00 0.00 0.00 0.00 0.00 0.00 0.00 0.00 0.00 0.00 0.00 0.00
0.01 0.02 0.04 0.05 0.04 0.02 0.00 0.00 0.00 0.00 0.00 0.00 0.00 0.00 0.00 0.00 0.00 0.00 0.00 0.00 0.00 0.00 0.00 0.00 0.00 0.00 0.00 0.00 0.00 0.00 0.00 0.00 0.00 0.00 0.00 0.00 0.00 0.00 0.00 0.00 0.00 0.00 0.00 0.00 0.00 0.00 0.00 0.00 0.00
0.01 0.01 0.03 0.03 0.01 0.00 0.00 0.00 0.00 0.00 0.00 0.00 0.00 0.00 0.00 0.00 0.00 0.00 0.00 0.00 0.00 0.00 0.00 0.00 0.00 0.00 0.00 0.00 0.00 0.00 0.00 0.00 0.00 0.00 0.00 0.00 0.00 0.00 0.00 0.00 0.00 0.00 0.00 0.00 0.00 0.00 0.00 0.00 0.00
0.00 0.01 0.00 0.01 0.01 0.00 0.00 0.00 0.00 0.00 0.00 0.00 0.00 0.00 0.00 0.00 0.00 0.00 0.00 0.00 0.00 0.00 0.00 0.00 0.00 0.00 0.00 0.00 0.00 0.00 0.00 0.00 0.00 0.00 0.00 0.00 0.00 0.00 0.00 0.00 0.00 0.00 0.00 0.00 0.00 0.00 0.00 0.00 0.00
0.01 0.01 0.01 0.03 0.03 0.01 0.00 0.00 0.00 0.00 0.00 0.00 0.00 0.00 0.00 0.00 0.00 0.00 0.00 0.00 0.00 0.00 0.00 0.00 0.00 0.00 0.00 0.00 0.00 0.00 0.00 0.00 0.00 0.00 0.00 0.00 0.00 0.00 0.00 0.00 0.00 0.00 0.00 0.00 0.00 0.00 0.00 0.00 0.00
0.01 0.01 0.03 0.04 0.03 0.01 0.00 0.00 0.00 0.00 0.00 0.00 0.00 0.00 0.00 0.00 0.00 0.00 0.00 0.00 0.00 0.00 0.00 0.00 0.00 0.00 0.00 0.00 0.00 0.00 0.00 0.00 0.00 0.00 0.00 0.00 0.00 0.00 0.00 0.00 0.00 0.00 0.00 0.00 0.00 0.00 0.00 0.00 0.00
0.01 0.01 0.02 0.03 0.03 0.01 0.00 0.00 0.00 0.00 0.00 0.00 0.00 0.00 0.00 0.00 0.00 0.00 0.00 0.00 0.00 0.00 0.00 0.00 0.00 0.00 0.00 0.00 0.00 0.00 0.00 0.00 0.00 0.00 0.00 0.00 0.00 0.00 0.00 0.00 0.00 0.00 0.00 0.00 0.00 0.00 0.00 0.00 0.00
MSLP
1012.65 1013.42 1014.33 1015.20 1015.89 1016.27 1016.28 1015.94 1015.34 1014.61 1013.94 1013.45 1013.23 1013.32 1013.65 1014.14 1014.65 1015.07 1015.33 1015.43 1015.40 1015.33 1015.30 1015.40 1015.65 1016.05 1016.55 1017.08 1017.57 1017.96 1018.24 1018.41 1018.50 1018.57 1018.66 1018.80 1018.98 1019.18 1019.38 1019.55 1019.67 1019.74 1019.77 1019.77 1019.77 1019.78 1019.79 1019.82 1019.83
1013.02 1013.94 1014.89 1015.72 1016.26 1016.42 1016.18 1015.59 1014.78 1013.91 1013.16 1012.66 1012.49 1012.65 1013.05 1013.59 1014.14 1014.58 1014.87 1015.00 1015.02 1015.01 1015.06 1015.24 1015.57 1016.03 1016.58 1017.14 1017.65 1018.06 1018.36 1018.57 1018.72 1018.86 1019.01 1019.20 1019.41 1019.63 1019.82 1019.97 1020.06 1020.09 1020.08 1020.06 1020.04 1020.04 1020.06 1020.08 1020.11
1013.48 1014.47 1015.40 1016.11 1016.46 1016.38 1015.89 1015.08 1014.11 1013.17 1012.41 1011.97 1011.88 1012.12 1012.59 1013.18 1013.76 1014.21 1014.51 1014.65 1014.71 1014.76 1014.89 1015.15 1015.55 1016.07 1016.65 1017.23 1017.75 1018.17 1018.48 1018.72 1018.91 1019.09 1019.30 1019.52 1019.76 1019.98 1020.16 1020.28 1020.32 1020.32 1020.28 1020.24 1020.21 1020.20 1020.23 1020.27 1020.31
1014.00 1014.98 1015.82 1016.34 1016.46 1016.14 1015.44 1014.47 1013.41 1012.46 1011.77 1011.43 1011.45 1011.79 1012.34 1012.97 1013.54 1013.98 1014.26 1014.41 1014.50 1014.61 1014.80 1015.13 1015.59 1016.16 1016.76 1017.34 1017.84 1018.25 1018.57 1018.81 1019.03 1019.25 1019.49 1019.74 1019.99 1020.21 1020.38 1020.47 1020.48 1020.45 1020.40 1020.34 1020.31 1020.32 1020.35 1020.41 1020.48
1014.51 1015.40 1016.07 1016.38 1016.26 1015.72 1014.85 1013.79 1012.72 1011.84 1011.27 1011.07 1011.24 1011.69 1012.30 1012.93 1013.49 1013.89 1014.15 1014.29 1014.39 1014.53 1014.79 1015.17 1015.68 1016.27 1016.87 1017.43 1017.91 1018.29 1018.58 1018.83 1019.06 1019.31 1019.57 1019.85 1020.12 1020.34 1020.50 1020.57 1020.58 1020.54 1020.48 1020.43 1020.41 1020.43 1020.49 1020.56 1020.65
1014.93 1015.67 1016.13 1016.20 1015.86 1015.14 1014.16 1013.07 1012.07 1011.32 1010.92 1010.89 1011.21 1011.75 1012.41 1013.04 1013.55 1013.91 1014.12 1014.24 1014.35 1014.52 1014.82 1015.24 1015.78 1016.37 1016.96 1017.48 1017.91 1018.26 1018.53 1018.77 1019.02 1019.29 1019.58 1019.89 1020.18 1020.41 1020.57 1020.65 1020.65 1020.62 1020.57 1020.54 1020.55 1020.59 1020.66 1020.75 1020.84
1015.17 1015.73 1015.96 1015.81 1015.28 1014.43 1013.40 1012.36 1011.48 1010.90 1010.69 1010.84 1011.28 1011.91 1012.59 1013.19 1013.66 1013.95 1014.12 1014.22 1014.33 1014.53 1014.86 1015.32 1015.86 1016.44 1016.99 1017.48 1017.87 1018.17 1018.43 1018.67 1018.93 1019.23 1019.57 1019.91 1020.22 1020.47 1020.64 1020.73 1020.75 1020.73 1020.71 1020.71 1020.73 1020.79 1020.87 1020.96 1021.03
1015.21 1015.57 1015.59 1015.25 1014.57 1013.65 1012.63 1011.68 1010.95 1010.56 1010.53 1010.83 1011.38 1012.06 1012.73 1013.29 1013.70 1013.94 1014.07 1014.16 1014.29 1014.52 1014.88 1015.35 1015.90 1016.46 1016.98 1017.42 1017.77 1018.05 1018.30 1018.56 1018.85 1019.19 1019.56 1019.94 1020.28 1020.56 1020.74 1020.84 1020.88 1020.88 1020.88 1020.89 1020.94 1021.01 1021.09 1021.16 1021.20
1015.05 1015.23 1015.08 1014.59 1013.81 1012.87 1011.91 1011.07 1010.50 1010.27 1010.39 1010.81 1011.42 1012.10 1012.74 1013.25 1013.60 1013.79 1013.91 1014.00 1014.16 1014.43 1014.83 1015.32 1015.87 1016.42 1016.91 1017.32 1017.64 1017.91 1018.17 1018.46 1018.79 1019.18 1019.60 1020.01 1020.38 1020.67 1020.86 1020.97 1021.02 1021.03 1021.04 1021.07 1021.13 1021.20 1021.27 1021.32 1021.33
1014.74 1014.79 1014.50 1013.91 1013.10 1012.18 1011.29 1010.58 1010.15 1010.04 1010.26 1010.73 1011.34 1011.99 1012.57 1013.02 1013.31 1013.48 1013.59 1013.72 1013.92 1014.24 1014.68 1015.20 1015.76 1016.30 1016.77 1017.16 1017.48 1017.77 1018.05 1018.38 1018.76 1019.20 1019.65 1020.10 1020.48 1020.78 1020.97 1021.08 1021.12 1021.14 1021.16 1021.19 1021.25 1021.32 1021.38 1021.41 1021.40
1014.36 1014.30 1013.93 1013.31 1012.50 1011.64 1010.84 1010.24 1009.91 1009.89 1010.14 1010.60 1011.16 1011.73 1012.22 1012.59 1012.84 1012.99 1013.12 1013.30 1013.56 1013.94 1014.42 1014.98 1015.55 1016.08 1016.55 1016.95 1017.28 1017.59 1017.92 1018.30 1018.73 1019.20 1019.69 1020.15 1020.54 1020.83 1021.02 1021.11 1021.15 1021.16 1021.18 1021.23 1021.29 1021.36 1021.42 1021.43 1021.40
1013.97 1013.85 1013.45 1012.83 1012.07 1011.28 1010.59 1010.08 1009.81 1009.82 1010.04 1010.44 1010.90 1011.36 1011.75 1012.03 1012.23 1012.38 1012.53 1012.76 1013.08 1013.51 1014.04 1014.63 1015.22 1015.77 1016.25 1016.66 1017.03 1017.38 1017.75 1018.17 1018.65 1019.15 1019.66 1020.12 1020.50 1020.77 1020.95 1021.03 1021.07 1021.08 1021.11 1021.16 1021.24 1021.32 1021.39 1021.41 1021.38
1013.61 1013.46 1013.07 1012.49 1011.80 1011.11 1010.52 1010.08 1009.85 1009.84 1010.00 1010.29 1010.62 1010.95 1011.21 1011.41 1011.56 1011.70 1011.87 1012.13 1012.50 1012.98 1013.54 1014.16 1014.76 1015.33 1015.84 1016.28 1016.69 1017.09 1017.51 1017.97 1018.47 1018.99 1019.50 1019.95 1020.31 1020.57 1020.74 1020.82 1020.87 1020.90 1020.96 1021.03 1021.14 1021.24 1021.33 1021.38 1021.38
1013.29 1013.13 1012.76 1012.25 1011.66 1011.08 1010.58 1010.20 1009.99 1009.94 1010.02 1010.18 1010.38 1010.56 1010.71 1010.82 1010.91 1011.02 1011.19 1011.47 1011.85 1012.35 1012.93 1013.55 1014.17 1014.76 1015.31 1015.80 1016.26 1016.71 1017.17 1017.67 1018.18 1018.70 1019.18 1019.61 1019.96 1020.22 1020.39 1020.50 1020.58 1020.66 1020.76 1020.88 1021.03 1021.18 1021.31 1021.39 1021.43
1012.95 1012.79 1012.47 1012.05 1011.57 1011.10 1010.69 1010.38 1010.18 1010.09 1010.08 1010.12 1010.19 1010.24 1010.27 1010.29 1010.32 1010.39 1010.54 1010.79 1011.17 1011.65 1012.21 1012.83 1013.46 1014.08 1014.66 1015.20 1015.72 1016.23 1016.74 1017.26 1017.77 1018.27 1018.74 1019.14 1019.48 1019.74 1019.94 1020.10 1020.24 1020.39 1020.56 1020.75 1020.96 1021.16 1021.34 1021.47 1021.55
1012.56 1012.41 1012.15 1011.82 1011.46 1011.11 1010.79 1010.54 1010.35 1010.22 1010.14 1010.08 1010.03 1009.97 1009.90 1009.84 1009.80 1009.82 1009.92 1010.13 1010.45 1010.88 1011.41 1012.00 1012.64 1013.28 1013.91 1014.53 1015.12 1015.69 1016.24 1016.77 1017.28 1017.76 1018.20 1018.59 1018.92 1019.20 1019.45 1019.67 1019.90 1020.15 1020.41 1020.68 1020.96 1021.22 1021.44 1021.62 1021.75
1012.06 1011.93 1011.75 1011.53 1011.29 1011.05 1010.82 1010.62 1010.43 1010.27 1010.12 1009.98 1009.84 1009.70 1009.56 1009.43 1009.33 1009.29 1009.33 1009.46 1009.71 1010.07 1010.54 1011.10 1011.74 1012.41 1013.10 1013.79 1014.46 1015.11 1015.71 1016.26 1016.77 1017.23 1017.64 1018.01 1018.34 1018.66 1018.96 1019.28 1019.61 1019.95 1020.31 1020.67 1021.01 1021.33 1021.60 1021.81 1021.98
1011.44 1011.38 1011.29 1011.18 1011.06 1010.92 1010.77 1010.59 1010.41 1010.20 1009.99 1009.78 1009.56 1009.36 1009.16 1008.99 1008.84 1008.74 1008.71 1008.77 1008.94 1009.22 1009.63 1010.16 1010.79 1011.50 1012.26 1013.04 1013.80 1014.52 1015.18 1015.77 1016.28 1016.73 1017.12 1017.47 1017.82 1018.17 1018.54 1018.94 1019.37 1019.81 1020.26 1020.69 1021.09 1021.45 1021.75 1021.99 1022.19
1010.76 1010.79 1010.82 1010.84 1010.83 1010.77 1010.66 1010.49 1010.26 1009.99 1009.70 1009.40 1009.12 1008.87 1008.64 1008.43 1008.26 1008.13 1008.05 1008.04 1008.14 1008.35 1008.70 1009.20 1009.84 1010.60 1011.43 1012.30 1013.16 1013.96 1014.69 1015.32 1015.84 1016.28 1016.67 1017.02 1017.38 1017.76 1018.19 1018.66 1019.17 1019.70 1020.22 1020.71 1021.16 1021.53 1021.85 1022.11 1022.33
1010.04 1010.23 1010.41 1010.56 1010.66 1010.66 1010.55 1010.33 1010.01 1009.64 1009.23 1008.84 1008.49 1008.18 1007.92 1007.71 1007.54 1007.40 1007.31 1007.27 1007.32 1007.49 1007.80 1008.28 1008.93 1009.72 1010.63 1011.58 1012.53 1013.43 1014.23 1014.90 1015.46 1015.91 1016.29 1016.65 1017.02 1017.43 1017.90 1018.43 1019.00 1019.59 1020.16 1020.68 1021.15 1021.54 1021.86 1022.13 1022.36
1009.37 1009.75 1010.12 1010.42 1010.60 1010.63 1010.48 1010.16 1009.71 1009.17 1008.62 1008.10 1007.65 1007.29 1007.02 1006.82 1006.68 1006.58 1006.50 1006.47 1006.52 1006.67 1006.96 1007.43 1008.09 1008.92 1009.87 1010.89 1011.92 1012.90 1013.76 1014.50 1015.09 1015.56 1015.97 1016.34 1016.72 1017.16 1017.65 1018.22 1018.82 1019.44 1020.03 1020.57 1021.04 1021.44 1021.76 1022.04 1022.29
1008.77 1009.38 1009.95 1010.40 1010.66 1010.69 1010.47 1010.01 1009.38 1008.65 1007.90 1007.22 1006.66 1006.25 1005.97 1005.80 1005.72 1005.69 1005.68 1005.70 1005.77 1005.93 1006.23 1006.70 1007.35 1008.19 1009.16 1010.23 1011.31 1012.34 1013.26 1014.05 1014.69 1015.21 1015.64 1016.04 1016.44 1016.90 1017.41 1017.99 1018.61 1019.23 1019.83 1020.37 1020.84 1021.24 1021.57 1021.86 1022.14
1008.20 1009.06 1009.84 1010.44 1010.77 1010.79 1010.47 1009.86 1009.03 1008.08 1007.13 1006.29 1005.61 1005.14 1004.86 1004.75 1004.75 1004.81 1004.90 1005.00 1005.14 1005.34 1005.64 1006.10 1006.74 1007.55 1008.52 1009.57 1010.67 1011.73 1012.69 1013.52 1014.22 1014.79 1015.27 1015.70 1016.14 1016.62 1017.15 1017.74 1018.35 1018.97 1019.56 1020.10 1020.57 1020.97 1021.32 1021.64 1021.95
1007.60 1008.69 1009.67 1010.41 1010.81 1010.81 1010.40 1009.65 1008.63 1007.48 1006.35 1005.36 1004.58 1004.06 1003.80 1003.75 1003.85 1004.03 1004.24 1004.45 1004.66 1004.90 1005.22 1005.66 1006.25 1007.01 1007.92 1008.94 1010.00 1011.05 1012.03 1012.90 1013.64 1014.28 1014.82 1015.31 1015.80 1016.31 1016.86 1017.45 1018.06 1018.67 1019.25 1019.79 1020.26 1020.68 1021.05 1021.40 1021.75
1006.88 1008.16 1009.30 1010.16 1010.62 1010.62 1010.15 1009.29 1008.14 1006.86 1005.59 1004.50 1003.66 1003.12 1002.89 1002.91 1003.12 1003.42 1003.75 1004.07 1004.36 1004.65 1004.97 1005.38 1005.91 1006.58 1007.40 1008.32 1009.32 1010.33 1011.30 1012.19 1012.98 1013.68 1014.29 1014.86 1015.40 1015.96 1016.53 1017.13 1017.74 1018.35 1018.92 1019.46 1019.94 1020.39 1020.79 1021.19 1021.58
1005.96 1007.36 1008.61 1009.55 1010.07 1010.08 1009.61 1008.71 1007.51 1006.17 1004.86 1003.73 1002.89 1002.38 1002.20 1002.30 1002.60 1003.02 1003.46 1003.87 1004.23 1004.56 1004.88 1005.23 1005.68 1006.25 1006.95 1007.77 1008.67 1009.61 1010.55 1011.44 1012.27 1013.02 1013.71 1014.35 1014.97 1015.57 1016.18 1016.80 1017.41 1018.01 1018.59 1019.13 1019.63 1020.10 1020.55 1020.98 1021.41
1004.82 1006.25 1007.54 1008.53 1009.08 1009.15 1008.72 1007.86 1006.71 1005.42 1004.16 1003.09 1002.30 1001.85 1001.75 1001.93 1002.32 1002.82 1003.34 1003.82 1004.24 1004.58 1004.89 1005.20 1005.56 1006.03 1006.60 1007.29 1008.08 1008.94 1009.83 1010.71 1011.56 1012.37 1013.12 1013.83 1014.51 1015.17 1015.81 1016.45 1017.07 1017.67 1018.25 1018.80 1019.32 1019.82 1020.30 1020.77 1021.23
1003.48 1004.86 1006.12 1007.10 1007.69 1007.81 1007.47 1006.74 1005.72 1004.58 1003.48 1002.54 1001.88 1001.54 1001.52 1001.77 1002.22 1002.77 1003.34 1003.86 1004.30 1004.65 1004.94 1005.22 1005.51 1005.88 1006.35 1006.93 1007.61 1008.38 1009.21 1010.07 1010.92 1011.76 1012.56 1013.33 1014.06 1014.76 1015.43 1016.08 1016.71 1017.31 1017.89 1018.44 1018.98 1019.50 1020.01 1020.50 1020.99
1002.05 1003.30 1004.46 1005.38 1005.97 1006.16 1005.94 1005.39 1004.59 1003.68 1002.80 1002.07 1001.58 1001.37 1001.44 1001.74 1002.22 1002.78 1003.35 1003.88 1004.32 1004.68 1004.96 1005.22 1005.47 1005.79 1006.18 1006.68 1007.28 1007.97 1008.74 1009.55 1010.40 1011.24 1012.06 1012.86 1013.62 1014.35 1015.04 1015.69 1016.31 1016.91 1017.49 1018.04 1018.59 1019.12 1019.64 1020.16 1020.65
1000.66 1001.72 1002.72 1003.55 1004.10 1004.34 1004.26 1003.90 1003.36 1002.73 1002.12 1001.64 1001.35 1001.27 1001.42 1001.75 1002.22 1002.76 1003.30 1003.79 1004.23 1004.58 1004.87 1005.13 1005.40 1005.70 1006.06 1006.52 1007.06 1007.70 1008.41 1009.18 1009.99 1010.82 1011.64 1012.43 1013.20 1013.93 1014.62 1015.26 1015.88 1016.46 1017.03 1017.58 1018.13 1018.67 1019.20 1019.72 1020.21
Thickness
5737 5738 5736 5726 5707 5690 5692 5708 5723 5731 5738 5748 5750 5746 5739 5736 5734 5730 5742 5746 5744 5741 5738 5736 5733 5731 5729 5727 5725 5723 5721 5720 5719 5717 5716 5715 5714 5713 5712 5710 5709 5708 5707 5705 5704 5703 5702 5701 5700
5736 5736 5727 5713 5693 5682 5693 5714 5724 5735 5744 5748 5748 5744 5738 5737 5742 5740 5740 5743 5743 5740 5736 5734 5731 5729 5727 5725 5723 5721 5719 5717 5716 5714 5713 5711 5710 5708 5707 5706 5704 5703 5702 5700 5699 5697 5696 5695 5694
5735 5732 5716 5701 5691 5688 5703 5723 5729 5741 5749 5751 5744 5743 5740 5737 5741 5742 5745 5744 5741 5737 5735 5732 5730 5727 5725 5722 5720 5718 5716 5715 5713 5711 5709 5708 5706 5704 5703 5701 5699 5698 5697 5695 5693 5692 5691 5690 5688
5728 5718 5708 5695 5695 5705 5717 5728 5736 5739 5746 5749 5743 5735 5739 5748 5748 5748 5746 5743 5739 5735 5733 5731 5728 5725 5723 5720 5718 5716 5714 5712 5710 5708 5706 5704 5702 5700 5698 5696 5695 5693 5691 5690 5688 5687 5685 5684 5683
5720 5706 5696 5690 5699 5715 5726 5733 5738 5738 5741 5744 5740 5732 5736 5746 5751 5749 5746 5742 5738 5734 5731 5729 5726 5724 5721 5718 5716 5713 5711 5709 5707 5704 5702 5700 5698 5695 5693 5691 5690 5688 5686 5685 5683 5681 5680 5679 5677
5704 5696 5684 5684 5700 5718 5729 5738 5739 5738 5740 5742 5738 5730 5734 5742 5745 5744 5744 5740 5738 5733 5730 5727 5724 5722 5719 5717 5714 5711 5708 5706 5703 5701 5698 5696 5693 5691 5689 5687 5685 5683 5681 5680 5678 5677 5675 5673 5672
5696 5688 5685 5693 5700 5713 5730 5739 5738 5736 5737 5740 5741 5727 5729 5735 5741 5742 5739 5737 5734 5731 5728 5725 5722 5720 5717 5714 5711 5708 5706 5703 5700 5697 5695 5692 5689 5687 5685 5682 5680 5678 5677 5675 5673 5671 5670 5668 5666
5700 5688 5688 5692 5700 5712 5733 5739 5743 5741 5740 5747 5744 5729 5726 5735 5738 5737 5733 5731 5729 5727 5725 5723 5721 5718 5715 5712 5709 5706 5703 5700 5697 5694 5691 5688 5685 5683 5680 5678 5676 5674 5672 5670 5668 5666 5664 5663 5661
5699 5680 5680 5694 5703 5714 5731 5734 5742 5748 5745 5744 5744 5743 5746 5744 5737 5732 5726 5724 5723 5723 5723 5721 5718 5716 5713 5709 5706 5703 5700 5697 5694 5690 5687 5684 5681 5679 5676 5673 5671 5669 5667 5665 5663 5661 5659 5657 5655
5686 5674 5688 5706 5713 5717 5726 5730 5736 5738 5736 5735 5736 5740 5744 5740 5736 5731 5726 5723 5722 5721 5721 5720 5717 5714 5710 5707 5704 5700 5697 5694 5690 5687 5684 5680 5677 5675 5672 5669 5667 5665 5662 5660 5658 5656 5654 5652 5650
5684 5683 5695 5706 5714 5719 5721 5726 5733 5730 5727 5732 5733 5733 5735 5734 5732 5731 5730 5729 5728 5725 5721 5719 5716 5712 5708 5705 5701 5697 5694 5690 5687 5684 5680 5677 5673 5670 5668 5665 5662 5660 5657 5655 5652 5650 5648 5646 5644
5682 5690 5697 5704 5711 5714 5716 5721 5724 5728 5731 5740 5740 5738 5734 5731 5731 5732 5731 5730 5727 5723 5721 5718 5715 5711 5707 5703 5699 5695 5691 5687 5683 5680 5677 5673 5669 5666 5663 5660 5658 5655 5652 5650 5647 5645 5642 5640 5638
5676 5685 5695 5700 5704 5708 5712 5714 5718 5724 5732 5735 5735 5732 5731 5731 5732 5734 5735 5731 5727 5724 5721 5718 5715 5711 5706 5702 5697 5693 5689 5685 5681 5677 5673 5670 5666 5662 5659 5656 5653 5650 5647 5644 5642 5639 5637 5634 5632
5676 5681 5686 5693 5697 5702 5702 5707 5711 5720 5728 5726 5725 5725 5727 5729 5730 5729 5727 5726 5725 5724 5722 5719 5715 5711 5706 5701 5696 5692 5687 5683 5678 5674 5670 5667 5663 5659 5655 5651 5648 5645 5642 5639 5636 5633 5631 5628 5625
5671 5669 5673 5683 5689 5694 5694 5692 5704 5718 5719 5718 5718 5720 5723 5726 5728 5728 5730 5730 5729 5727 5723 5719 5715 5710 5705 5700 5695 5690 5685 5680 5676 5671 5668 5664 5659 5655 5651 5647 5643 5640 5637 5634 5630 5627 5624 5621 5618
5658 5653 5654 5675 5683 5687 5680 5679 5702 5712 5711 5711 5713 5715 5717 5722 5725 5729 5731 5731 5730 5727 5723 5719 5715 5709 5704 5699 5694 5689 5683 5678 5673 5669 5664 5660 5656 5652 5647 5643 5639 5635 5632 5628 5624 5620 5616 5613 5609
5637 5636 5646 5662 5677 5678 5673 5677 5698 5707 5706 5707 5710 5712 5715 5718 5722 5727 5729 5730 5730 5728 5723 5718 5714 5709 5703 5697 5692 5686 5680 5675 5670 5665 5660 5656 5652 5647 5643 5638 5633 5629 5625 5621 5617 5612 5609 5604 5601
5627 5632 5643 5651 5669 5668 5665 5673 5690 5698 5700 5702 5705 5708 5711 5716 5723 5728 5729 5730 5729 5727 5723 5718 5713 5707 5700 5693 5687 5681 5675 5671 5666 5661 5657 5652 5647 5642 5637 5632 5628 5623 5619 5614 5610 5605 5600 5596 5592
5633 5633 5637 5650 5664 5659 5658 5667 5682 5691 5692 5695 5699 5703 5708 5716 5725 5728 5728 5728 5726 5723 5720 5716 5709 5704 5697 5690 5683 5677 5671 5667 5661 5657 5653 5647 5643 5637 5632 5627 5622 5617 5612 5608 5603 5598 5593 5587 5584
5624 5624 5630 5642 5654 5652 5650 5659 5675 5684 5689 5696 5701 5704 5709 5715 5720 5723 5724 5723 5722 5721 5718 5713 5708 5702 5697 5691 5685 5678 5670 5663 5658 5652 5647 5643 5638 5633 5627 5622 5616 5611 5606 5600 5596 5591 5585 5579 5575
5616 5620 5626 5630 5641 5646 5643 5645 5662 5679 5688 5695 5701 5707 5711 5716 5719 5720 5720 5719 5719 5717 5715 5712 5706 5701 5695 5688 5679 5670 5661 5654 5649 5645 5641 5637 5633 5628 5622 5616 5611 5605 5600 5594 5589 5584 5578 5571 5566
5613 5628 5627 5624 5618 5616 5627 5619 5649 5667 5677 5688 5697 5703 5708 5714 5717 5718 5718 5716 5716 5716 5713 5709 5704 5697 5691 5684 5676 5669 5661 5654 5649 5643 5637 5632 5627 5622 5616 5611 5605 5600 5594 5588 5583 5577 5572 5566 5559
5618 5626 5620 5618 5610 5606 5613 5609 5637 5658 5666 5682 5694 5702 5707 5711 5713 5715 5716 5716 5714 5712 5708 5704 5698 5692 5686 5680 5674 5667 5659 5652 5643 5637 5630 5625 5620 5616 5611 5605 5600 5593 5588 5582 5576 5570 5565 5560 5553
5614 5610 5606 5600 5595 5590 5610 5605 5624 5651 5670 5682 5692 5698 5703 5707 5709 5710 5711 5709 5706 5704 5700 5697 5692 5687 5681 5675 5669 5663 5655 5646 5638 5631 5624 5618 5612 5608 5603 5599 5593 5588 5582 5576 5570 5564 5559 5553 5547
5600 5589 5577 5575 5574 5588 5610 5606 5629 5660 5676 5683 5689 5694 5698 5700 5701 5701 5701 5699 5697 5694 5692 5689 5686 5680 5675 5670 5664 5658 5651 5643 5636 5629 5622 5614 5607 5601 5597 5593 5587 5581 5576 5570 5564 5558 5552 5546 5540
5597 5593 5580 5575 5576 5588 5601 5605 5637 5665 5678 5684 5687 5690 5691 5692 5693 5694 5694 5693 5691 5689 5686 5683 5679 5675 5670 5664 5659 5653 5646 5639 5633 5626 5619 5612 5606 5599 5593 5587 5581 5575 5569 5563 5557 5551 5545 5539 5533
5590 5590 5596 5583 5579 5581 5591 5611 5637 5660 5668 5674 5678 5680 5682 5685 5686 5686 5686 5685 5683 5681 5679 5677 5673 5669 5664 5659 5653 5647 5641 5635 5628 5620 5614 5607 5601 5593 5587 5581 5575 5568 5562 5556 5550 5544 5537 5531 5526
5597 5594 5584 5577 5571 5572 5588 5603 5625 5651 5659 5666 5669 5672 5676 5678 5678 5678 5678 5677 5675 5674 5672 5669 5666 5663 5658 5653 5647 5642 5635 5629 5622 5615 5608 5601 5594 5588 5581 5574 5568 5562 5556 5550 5543 5537 5531 5524 5518
5584 5584 5584 5578 5575 5575 5577 5603 5643 5653 5661 5663 5666 5669 5670 5671 5671 5671 5670 5668 5666 5664 5662 5660 5657 5653 5649 5645 5640 5635 5629 5623 5616 5610 5603 5596 5589 5582 5575 5569 5562 5555 5549 5543 5536 5530 5523 5517 5511
5587 5588 5586 5579 5575 5579 5582 5608 5650 5654 5660 5662 5663 5665 5665 5666 5666 5664 5662 5659 5656 5655 5653 5651 5649 5646 5642 5638 5633 5628 5622 5616 5610 5604 5597 5590 5583 5577 5570 5564 5556 5550 5543 5536 5530 5523 5517 5510 5503